Orbital Elements at Epoch 2459200.5 (2020-Dec-17.0) TDB
Reference: JPL 29 (heliocentric ecliptic J2000)
Element | Value | Uncertainty (1-sigma) | Units |
e | .137714058377774 | 4.161e-08 | |
a | 2.595642157674972 | 1.2523e-08 | au |
q | 2.23818574204511 | 1.1027e-07 | au |
i | 4.046060889789552 | 3.3207e-06 | deg |
node | 246.498027959169 | 5.9402e-05 | deg |
peri | 290.4671733653702 | 6.0629e-05 | deg |
M | 53.36843570530942 | 1.0928e-05 | deg |
tp | 2458974.062877042677 (2020-May-04.56287704) | 4.6457e-05 | TDB |
period | 1527.445262116354 4.18 | 1.1054e-05 3.026e-08 | d yr |
n | .2356876602577571 | 1.7056e-09 | deg/d |
Q | 2.953098573304834 | 1.4247e-08 | au |
|
| | Orbit Determination Parameters
Additional Information
|